Weather History for Key West, FL

Change the Weather History Date:

Wednesday, January 30, 2013

  Actual Average Record
Temperature  
Mean Temperature 76 °F 70 °F  
Max Temperature 79 °F 75 °F 85 °F (1991)
Min Temperature 72 °F 65 °F 47 °F (1940)
Degree Days  
Heating Degree Days 0 1  
Month to date heating degree days 1 30  
Since 1 July heating degree days 5 48  
Cooling Degree Days 11 6  
Month to date cooling degree days 285 153  
Year to date cooling degree days 285 153  
Growing Degree Days 26 (Base 50)    
Moisture  
Dew Point 67 °F    
Average Humidity 72    
Maximum Humidity 82    
Minimum Humidity 62    
Precipitation  
Precipitation 0.00 in 0.06 in 2.93 in (1970)
Month to date precipitation 0.29 1.98  
Year to date precipitation 0.29 1.98  
Snow  
Snow 0.00 in - - ()
Month to date snowfall 0.0  
Since 1 July snowfall 0.0  
Snow Depth 0.00 in    
Sea Level Pressure  
Sea Level Pressure 30.04 in    
Wind  
Wind Speed 13 mph (SE)    
Max Wind Speed 22 mph    
Max Gust Speed 32 mph    
Visibility 10 miles    
Events      
T = Trace of Precipitation, MM = Missing Value Source: NWS Daily Summary

Daily Weather History Graph

Daily Weather History Graph

Search for Another Location

Airport:

Trip Planner

Search our weather history database for the weather conditions in past years. The results will help you decide how hot, cold, wet, or windy it might be!

Date:

Astronomy

Jan. 30, 2013 Rise Set
Actual Time 7:09 AM EST 6:11 PM EST
Civil Twilight 6:45 AM EST 6:35 PM EST
Nautical Twilight 6:18 AM EST 7:02 PM EST
Astronomical Twilight 5:51 AM EST 7:29 PM EST
Moon 9:36 PM EST (1/30) 9:05 AM EST (1/30)
Length of Visible Light 11h 49m
Length of Day
11h 01m
Waning Gibbous, 88% of the Moon is Illuminated
Jan 30
Waning Gibbous
Feb 3
Last Quarter
Feb 10
New
Feb 17
First Quarter
Feb 25
Full

Hourly Weather History & Observations

Time (EST) Temp. Dew Point Humidity Pressure Visibility Wind Dir Wind Speed Gust Speed Precip Events Conditions
12:53 AM 73.9 °F 66.0 °F 76% 30.09 in 10.0 mi ESE 18.4 mph - N/A   Clear
1:53 AM 73.9 °F 66.0 °F 76% 30.09 in 10.0 mi ESE 17.3 mph - N/A   Partly Cloudy
2:53 AM 73.9 °F 64.9 °F 73% 30.07 in 10.0 mi SE 16.1 mph 24.2 mph N/A   Clear
3:53 AM 73.9 °F 64.9 °F 73% 30.07 in 10.0 mi SE 17.3 mph - N/A   Scattered Clouds
4:53 AM 73.9 °F 64.9 °F 73% 30.06 in 10.0 mi SE 12.7 mph 21.9 mph N/A   Scattered Clouds
5:53 AM 73.9 °F 64.0 °F 71% 30.06 in 10.0 mi SE 16.1 mph - N/A   Scattered Clouds
6:08 AM 73.4 °F 64.4 °F 73% 30.06 in 10.0 mi SE 13.8 mph - N/A   Mostly Cloudy
6:18 AM 73.4 °F 64.4 °F 73% 30.06 in 10.0 mi SE 13.8 mph - N/A   Scattered Clouds
6:53 AM 73.9 °F 66.0 °F 76% 30.07 in 10.0 mi SE 15.0 mph - N/A   Scattered Clouds
7:53 AM 75.2 °F 64.4 °F 69% 30.08 in 10.0 mi SE 13.8 mph - N/A   Clear
8:53 AM 75.9 °F 66.0 °F 71% 30.07 in 10.0 mi SE 13.8 mph - N/A   Scattered Clouds
9:53 AM 77.0 °F 64.9 °F 66% 30.08 in 10.0 mi SE 17.3 mph - N/A   Partly Cloudy
10:53 AM 78.1 °F 64.9 °F 64% 30.06 in 10.0 mi SSE 18.4 mph - N/A   Clear
11:53 AM 79.0 °F 66.9 °F 66% 30.02 in 10.0 mi SE 19.6 mph - N/A   Clear
12:53 PM 79.0 °F 68.0 °F 69% 29.99 in 10.0 mi SSE 18.4 mph 26.5 mph N/A   Partly Cloudy
1:20 PM 73.4 °F 69.8 °F 88% 29.98 in 10.0 mi SSE 17.3 mph - N/A   Mostly Cloudy
1:53 PM 75.9 °F 68.0 °F 76% 29.98 in 10.0 mi SSE 18.4 mph - N/A   Mostly Cloudy
2:53 PM 78.1 °F 68.0 °F 71% 29.99 in 10.0 mi South 15.0 mph - N/A   Clear
3:53 PM 78.1 °F 66.9 °F 68% 30.00 in 10.0 mi South 10.4 mph - N/A   Clear
4:53 PM 78.1 °F 68.0 °F 71% 29.99 in 10.0 mi SE 8.1 mph - N/A   Clear
5:53 PM 75.9 °F 68.0 °F 76% 29.99 in 10.0 mi SE 5.8 mph - N/A   Clear
6:53 PM 75.9 °F 68.0 °F 76% 30.00 in 10.0 mi SE 4.6 mph - N/A   Clear
7:53 PM 75.0 °F 69.1 °F 82% 30.01 in 10.0 mi SSE 6.9 mph - N/A   Clear
8:53 PM 75.0 °F 70.0 °F 84% 30.03 in 10.0 mi SSE 8.1 mph - N/A   Partly Cloudy
9:53 PM 75.0 °F 70.0 °F 84% 30.03 in 10.0 mi SSE 9.2 mph - N/A   Clear
10:53 PM 75.0 °F 70.0 °F 84% 30.03 in 10.0 mi SSE 9.2 mph - N/A   Clear
11:53 PM 75.9 °F 70.0 °F 82% 30.01 in 10.0 mi SSE 12.7 mph - N/A   Clear